CW8593 Gava ES current weather conditions

sailwx.info

Wind from 247 at 1 knots gusting 2

Air temperature 10.6° C
Dewpoint 5.7° C

Last reported at 2015-Feb-28 19:32 UTC.
Time now 2015-Feb-28 20:53 UTC

Location: N 41°18' E 001°60'.
View on Google Maps.

See reports from other nearby stations

  
Tides and Currents Weather Stations Pressure Air Temp Water Temp Dewpoint Dewpoint Depression Visibility Wind Speed Wind Dir Waves Ship Positions
date/time (UTC)wind fromknots sea level pressurealtimeterstation pressurevisibilityair tempwater tempwave heightnotes
2015-Feb-28 19:32 247 1 gusting 2 10.6
2015-Feb-28 19:22 247 10.6
2015-Feb-28 19:02 246 0 gusting 2 10.6
2015-Feb-28 18:52 247 0 gusting 6 11.1
2015-Feb-28 18:42 215 2 gusting 5 11.1
2015-Feb-28 18:22 201 1 gusting 6 11.1
2015-Feb-28 17:52 218 1 gusting 6 11.1
2015-Feb-28 17:42 221 2 gusting 7 11.1
2015-Feb-28 17:22 229 1 gusting 6 11.1
2015-Feb-28 17:12 218 1 gusting 7 11.1
2015-Feb-28 16:42 206 11.1
2015-Feb-28 16:32 209 1 gusting 6 11.1
2015-Feb-28 16:22 186 0 gusting 5 11.7
2015-Feb-28 16:02 199 2 gusting 10 11.7
2015-Feb-28 15:52 219 3 gusting 7 11.7
2015-Feb-28 15:42 184 1 gusting 5 11.7
2015-Feb-28 15:32 288 1 gusting 6 11.7
2015-Feb-28 15:22 227 1 gusting 6 11.7
2015-Feb-28 15:12 216 4 gusting 6 11.7
2015-Feb-28 15:02 187 2 gusting 6 11.1
2015-Feb-28 14:52 190 0 gusting 6 11.1
2015-Feb-28 14:42 181 3 gusting 7 11.1
2015-Feb-28 14:32 213 5 gusting 10 11.1
2015-Feb-28 14:22 177 4 gusting 11 11.1
2015-Feb-28 14:12 231 2 gusting 10 11.1
2015-Feb-28 14:02 186 6 gusting 10 11.7
2015-Feb-28 13:52 178 5 gusting 11 11.1
2015-Feb-28 13:22 171 5 gusting 7 11.1
2015-Feb-28 13:12 176 4 gusting 10 11.1
2015-Feb-28 13:02 123 5 gusting 10 11.7
2015-Feb-28 12:52 128 2 gusting 10 11.7
2015-Feb-28 12:42 196 4 gusting 10 11.7
2015-Feb-28 12:32 186 4 gusting 10 11.7
2015-Feb-28 12:22 169 1 gusting 10 11.7
2015-Feb-28 12:12 140 2 gusting 8 11.7
2015-Feb-28 11:42 178 4 gusting 8 11.7
2015-Feb-28 11:32 137 2 gusting 10 11.7
2015-Feb-28 11:22 146 5 gusting 10 11.1
2015-Feb-28 10:52 209 2 gusting 10 11.7
2015-Feb-28 10:42 222 3 gusting 8 11.7
2015-Feb-28 10:32 170 2 gusting 6 11.7
2015-Feb-28 10:22 145 4 gusting 6 11.7
2015-Feb-28 10:12 11.7
2015-Feb-28 09:52 349 5 gusting 7 11.1
2015-Feb-28 09:42 355 4 gusting 7 10.6
2015-Feb-28 09:32 355 4 gusting 7 11.1
2015-Feb-28 09:22 005 0 gusting 5 10.6
2015-Feb-28 08:22 344 3 gusting 8 9.4
2015-Feb-28 08:12 355 1 gusting 4 9.4
2015-Feb-28 08:02 212 1 gusting 5 8.9
2015-Feb-28 07:52 025 2 gusting 6 8.3
2015-Feb-28 07:42 331 2 gusting 7 7.8
2015-Feb-28 07:12 302 5 gusting 7 6.7
2015-Feb-28 05:32 298 5 gusting 10 7.2
2015-Feb-28 05:12 311 3 gusting 10 6.7
2015-Feb-28 04:32 292 3 gusting 6 7.2
2015-Feb-28 04:22 305 2 gusting 5 6.7
2015-Feb-28 04:12 329 1 gusting 2 6.7
2015-Feb-28 03:42 335 0 gusting 1 7.2
2015-Feb-28 03:32 334 0 gusting 1 7.2
2015-Feb-28 03:22 335 7.8
2015-Feb-28 03:12 334 1 gusting 5 7.8
2015-Feb-28 02:52 313 7.8
2015-Feb-28 02:42 313 8.3
2015-Feb-28 02:32 313 1 gusting 5 8.3
2015-Feb-28 02:22 311 1 gusting 5 8.3
2015-Feb-28 02:02 304 8.9
2015-Feb-28 01:52 304 1 gusting 6 8.9
2015-Feb-28 01:42 310 4 gusting 7 8.9
2015-Feb-28 01:12 286 6 gusting 10 9.4
2015-Feb-28 01:02 290 6 gusting 10 8.9
2015-Feb-28 00:52 284 5 gusting 10 8.9
2015-Feb-28 00:22 299 5 gusting 10 8.9
2015-Feb-27 23:52 295 6 gusting 10 8.9
2015-Feb-27 23:42 287 5 gusting 8 8.9
2015-Feb-27 23:02 313 5 gusting 10 8.3
2015-Feb-27 22:42 304 6 gusting 10 8.3
2015-Feb-27 22:32 288 7 gusting 10 8.3
2015-Feb-27 21:42 304 4 gusting 6 10.0
2015-Feb-27 21:32 304 1 gusting 6 10.0
2015-Feb-27 21:12 240 0 gusting 2 10.0
2015-Feb-27 21:02 240 1 gusting 4 10.6
2015-Feb-27 20:32 211 0 gusting 10 11.1
2015-Feb-27 20:22 211 1 gusting 6 11.1
2015-Feb-27 20:12 232 2 gusting 7 11.1
2015-Feb-27 19:52 237 1 gusting 6 10.6
2015-Feb-27 19:42 237 2 gusting 6 10.6
2015-Feb-27 19:32 219 1 gusting 4 10.6
2015-Feb-27 19:22 219 2 gusting 6 10.6
2015-Feb-27 19:02 250 2 gusting 6 10.6
2015-Feb-27 18:42 235 0 gusting 5 10.6
2015-Feb-27 18:32 233 0 gusting 4 10.6
2015-Feb-27 18:22 225 0 gusting 5 10.6
2015-Feb-27 18:12 227 0 gusting 2 11.1
2015-Feb-27 17:52 176 1 gusting 6 11.1
2015-Feb-27 17:32 182 2 gusting 7 11.7
2015-Feb-27 17:22 176 1 gusting 6 11.7
2015-Feb-27 17:02 173 2 gusting 8 12.2
2015-Feb-27 16:52 185 2 gusting 8 12.2
2015-Feb-27 16:42 194 1 gusting 10 12.2
2015-Feb-27 16:32 205 3 gusting 6 12.2
2015-Feb-27 16:22 190 2 gusting 10 12.8
2015-Feb-27 16:02 196 6 gusting 11 12.2
2015-Feb-27 15:52 191 6 gusting 12 12.2
2015-Feb-27 15:32 178 6 gusting 12 12.2
2015-Feb-27 15:12 196 2 gusting 11 12.2
2015-Feb-27 15:02 117 5 gusting 11 12.2
2015-Feb-27 14:32 182 5 gusting 10 11.7
2015-Feb-27 14:22 172 5 gusting 12 11.1
2015-Feb-27 14:12 142 6 gusting 12 11.1
2015-Feb-27 13:52 129 5 gusting 12 11.7
2015-Feb-27 13:42 126 6 gusting 13 11.1
2015-Feb-27 13:12 144 9 gusting 18 12.2
2015-Feb-27 13:02 072 11 gusting 22 12.8
2015-Feb-27 12:52 098 8 gusting 17 15.0
2015-Feb-27 12:32 15.6
2015-Feb-27 12:22 275 8 gusting 18 15.6
2015-Feb-27 12:12 252 9 gusting 17 15.6
2015-Feb-27 12:02 295 11 gusting 22 15.0
2015-Feb-27 11:52 263 10 gusting 20 15.0
2015-Feb-27 11:32 273 12 gusting 19 15.0
2015-Feb-27 10:52 022 1 gusting 6 15.6
2015-Feb-27 10:42 308 3 gusting 6 14.4
2015-Feb-27 10:32 033 2 gusting 6 13.9
2015-Feb-27 10:22 024 0 gusting 4 13.9
2015-Feb-27 10:12 025 0 gusting 6 13.9
2015-Feb-27 10:02 300 3 gusting 6 13.3
2015-Feb-27 09:52 306 1 gusting 5 12.8
2015-Feb-27 09:42 317 4 gusting 10 12.8
2015-Feb-27 09:32 331 4 gusting 8 12.8
2015-Feb-27 09:22 346 3 gusting 7 12.2
2015-Feb-27 09:02 355 4 gusting 8 12.2
2015-Feb-27 08:52 11.7
2015-Feb-27 08:42 11.7
2015-Feb-27 08:32 355 2 gusting 7 11.7
2015-Feb-27 08:22 355 4 gusting 8 11.7
2015-Feb-27 08:02 019 11.7
2015-Feb-27 07:52 018 0 gusting 7 11.1
2015-Feb-27 07:42 311 2 gusting 8 11.1
2015-Feb-27 07:22 317 11.1
2015-Feb-27 07:12 317 0 gusting 2 11.1
2015-Feb-27 06:42 317 1 gusting 2 10.6
2015-Feb-27 06:22 315 10.0
2015-Feb-27 06:12 315 10.0
2015-Feb-27 06:02 315 10.6
2015-Feb-27 05:52 315 10.6
2015-Feb-27 05:42 315 11.1
2015-Feb-27 05:22 315 11.1
2015-Feb-27 05:12 315 1 gusting 2 11.1
2015-Feb-27 05:02 315 11.7
2015-Feb-27 04:52 315 11.7
2015-Feb-27 04:42 315 1 gusting 2 11.7
2015-Feb-27 04:32 315 11.7
2015-Feb-27 04:22 315 0 gusting 2 11.7
2015-Feb-27 04:12 315 0 gusting 2 12.2
2015-Feb-27 03:52 315 1 gusting 2 11.7
2015-Feb-27 03:42 315 11.7
2015-Feb-27 03:32 315 11.7
2015-Feb-27 03:22 315 11.7
2015-Feb-27 03:12 315 1 gusting 4 11.7
2015-Feb-27 02:42 315 0 gusting 2 11.7
2015-Feb-27 02:32 315 0 gusting 2 11.7
2015-Feb-27 02:22 315 11.7
2015-Feb-27 02:12 315 12.2
2015-Feb-27 01:52 315 0 gusting 4 12.2
2015-Feb-27 01:42 315 1 gusting 5 12.2
2015-Feb-27 01:32 298 1 gusting 5 12.2
2015-Feb-27 01:22 297 2 gusting 5 11.7
2015-Feb-27 01:12 247 11.7
2015-Feb-27 01:02 247 11.7
2015-Feb-27 00:42 247 11.7
2015-Feb-27 00:12 246 0 gusting 2 11.7
2015-Feb-27 00:02 247 11.7
2015-Feb-26 23:52 247 0 gusting 2 11.7
2015-Feb-26 23:42 247 11.7
2015-Feb-26 23:32 247 1 gusting 2 11.1
2015-Feb-26 23:12 246 0 gusting 4 11.1
2015-Feb-26 23:02 173 11.1
2015-Feb-26 22:52 173 11.1
2015-Feb-26 22:42 172 11.7
2015-Feb-26 22:32 173 11.7
2015-Feb-26 22:22 171 0 gusting 1 11.1
2015-Feb-26 22:12 171 11.1
2015-Feb-26 21:52 171 11.1
2015-Feb-26 21:32 171 0 gusting 2 11.1
2015-Feb-26 21:02 171 11.7
2015-Feb-26 20:52 171 11.7
2015-Feb-26 20:32 171 11.7
2015-Feb-26 20:12 171 11.7
2015-Feb-26 20:02 171 0 gusting 1 11.7